This is the latest recevied weather packets stored in our database for station/object SP9KB-13. If no packets are shown the sender has not sent any weather packets the latest 10 day(s).
| Time | Temp. | Humidity | Pressure | Rain* | Wind** | Luminosity | Snow |
|---|---|---|---|---|---|---|---|
| 1778168548 | 19.44° C | 65% | 993.1 hPa | 0 mm | - | - | - |
| 1778168247 | 19.44° C | 65% | 993.3 hPa | 0 mm | - | - | - |
| 1778167947 | 19.44° C | 64% | 993.1 hPa | 0 mm | - | - | - |
| 1778167646 | 19.44° C | 63% | 993 hPa | 0 mm | - | - | - |
| 1778167045 | 20° C | 64% | 992.8 hPa | 0 mm | - | - | - |
| 1778166744 | 20° C | 64% | 993 hPa | 0 mm | - | - | - |
| 1778166444 | 19.44° C | 65% | 993 hPa | 0 mm | - | - | - |
| 1778166144 | 20° C | 64% | 993 hPa | 0 mm | - | - | - |
| 1778165843 | 20.56° C | 63% | 992.9 hPa | 0 mm | - | - | - |
| 1778165542 | 21.11° C | 62% | 993 hPa | 0 mm | - | - | - |
| 1778165241 | 21.11° C | 61% | 992.8 hPa | 0 mm | - | - | - |
| 1778164941 | 21.67° C | 59% | 992.9 hPa | 0 mm | - | - | - |
| 1778164641 | 21.11° C | 60% | 993 hPa | 0 mm | - | - | - |
| 1778164340 | 20.56° C | 62% | 993.1 hPa | 0 mm | - | - | - |
| 1778164039 | 20° C | 64% | 993 hPa | 0 mm | - | - | - |
| 1778163738 | 20° C | 63% | 993 hPa | 0 mm | - | - | - |
| 1778163438 | 20.56° C | 63% | 993.2 hPa | 0 mm | - | - | - |
| 1778163137 | 20° C | 63% | 993 hPa | 0 mm | - | - | - |
| 1778162837 | 20.56° C | 62% | 993.1 hPa | 0 mm | - | - | - |
| 1778162536 | 20.56° C | 62% | 993.1 hPa | 0 mm | - | - | - |
| 1778162236 | 21.11° C | 60% | 993 hPa | 0 mm | - | - | - |
| 1778161935 | 20.56° C | 60% | 993.2 hPa | 0 mm | - | - | - |
| 1778161634 | 20° C | 61% | 993.2 hPa | 0 mm | - | - | - |
| 1778161334 | 20° C | 62% | 993.2 hPa | 0 mm | - | - | - |
| 1778161033 | 19.44° C | 62% | 993.2 hPa | 0 mm | - | - | - |
* Rain latest hour (hover to see other rain measurements)
** Current wind speed in m/s (hover to see current wind gust speed)